User: anonymous   Login
Location: Azul
(36.7830°S, 59.8500°W)
Time: 09:05:05
(UTC-03:00)
Language:

PSAT 2 - Orbit

View from above orbital plane
View from above orbital plane
View from above satellite
View from above satellite

Ground track
Ground track

The orbit data is extracted from the following two-line orbital elements,

1 44354U 19036R   21294.46763494  .00029637  00000-0  37230-3 0  9995
2 44354  28.5295   4.2443 0307578 206.5165 151.9392 15.18196578128119
Epoch (UTC): 21 October 2021 11:13:23
Eccentricity: 0.0307578
inclination: 28.5295°
perigee height: 299 km
apogee height: 723 km
right ascension of ascending node: 4.2443°
argument of perigee: 206.5165°
revolutions per day: 15.18196578
mean anomaly at epoch: 151.9392°
orbit number at epoch: 12811

The dashed part of the orbit path shows where the satellite is in the earth's shadow,  

DLR